{"data":{"norad_id":47934,"intl_designator":"2021-022C","name":"GRUS-1B","alt_names":[],"object_type":"PAYLOAD","status":"ACTIVE","operator":null,"country":"JPN","launch_date":"2021-03-22","launch_site_code":"TYMSC","launch_vehicle":null,"mission":null,"orbit_class":"UNKNOWN","rcs_meters":null,"size_class":null,"mass_kg":null,"dimensions":null,"purposes":[],"wikipedia_slug":null,"has_3d_model":false,"image_url":null,"decayed_at":null,"tle_current":{"epoch":"2026-05-25T05:06:57.308256Z","epoch_age_seconds":63550,"freshness":"FRESH","line1":"1 47934U 21022C   26145.21316329  .00001360  00000+0  11696-3 0  9994","line2":"2 47934  97.5399  29.1618 0016918  42.5841 317.6691 14.98915909282456","mean_motion":14.98915909,"eccentricity":0.0016918,"inclination_deg":97.5399,"raan_deg":29.1618,"arg_perigee_deg":42.5841,"mean_anomaly_deg":317.6691,"bstar":0.00011696,"rev_number":28245,"period_min":96.069432004407,"perigee_km":558.48933391948,"apogee_km":581.99987792127,"semimajor_km":6948.3816059204,"source":"CELESTRAK","updated_at":"2026-05-25T13:37:56.626335Z"}}}